JILIN-01 GAOFEN 3D 31 (52448 NORAD) Tracking and Keplerian Element Data
This shows tracking and keplerian element data for the satellite.
Feedback or suggestion? Click here.
Element | Value |
Catalog | 52448 |
Name | JILIN-01 GAOFEN 3D 31 |
Epoch Orbit | 243 |
Epoch Day | 141.14202344 |
Epoch Year | 2022 |
RAAN | 205.7613 |
Inclination | 97.6799 |
Eccentricity | 0.0013583 |
Argument of Perigee | 218.0843 |
Mean Anonmoly | 230.1011 |
Mean Motion | 15.09948146 |
Decay Rate | 7.633E-05 |
L1 | 1 52448U 22048F 22141.14202344 .00007633 00000+0 47334-3 0 9991 |
L2 | 2 52448 97.6799 205.7613 0013583 218.0843 230.1011 15.09948146 2436 |
Live tracking and technical data element details for JILIN-01 GAOFEN 3D 31 (NORAD 52448). JILIN-01 GAOFEN 3D 31 can be tracked NOW for your location showing map with azimuth and elevation plus other details from your city location.
Track the satellite on the map from your city or location and see movement details for azimuth, elevation, latitude, longitude, range, height, and movement on the map or in text.
IsCatalogInMostPopularTable: catalog: 52448, numindb: -1
Insert: records affected: 1
GetName: 52448 JILIN-01 GAOFEN 3D 31
Hit Count: inserted at: Mon, 23 May 2022 17:51:28 GMT